Regional Weather Roundup
Issued by NWS

Home | Current Version | Previous Version | Text Only | Print | Product List | Glossary Off
Versions: 1 2 3 4 5 6 7 8 9 10 11 12 13 14 15 16 17 18 19 20 21 22 23 24 25 26 27 28 29 30 31 32 33 34 35 36 37 38 39 40 41 42 43 44 45 46 47 48 49 50

000
ASUS43 KDMX 190106
RWRIA

WEATHER ROUNDUP FOR IOWA
NATIONAL WEATHER SERVICE DES MOINES IA
800 PM CDT FRI AUG 18 2017

NOTE: "FAIR" INDICATES FEW OR NO CLOUDS BELOW 12,000 FEET WITH NO
SIGNIFICANT WEATHER AND/OR OBSTRUCTIONS TO VISIBILITY.

* - THESE STATIONS ARE NOT NWS STATIONS...THUS NOT UNDER NWS
QUALITY CONTROL.  THEY ALSO DO NOT REPORT WEATHER SUCH
AS PRECIPITATION OR FOG.

IAZ001>003-012>014-020>022-031>034-043>046-190200-
   NORTHWEST IOWA

CITY           SKY/WX    TMP DP  RH WIND       PRES   REMARKS
CARROLL *      PTCLDY    73  68  83 CALM      29.89S
CHEROKEE *     PTCLDY    75  68  78 S3        29.89S
DENISON *      CLEAR     77  68  73 CALM      29.91R
LE MARS *      CLEAR     77  68  73 CALM      29.89R
ORANGE CITY *  CLEAR     75  70  83 W5        29.90R
SHELDON *      CLOUDY    75  66  73 SW8       29.86S
SIOUX CITY     PTCLDY    79  68  69 NW8       29.88S HX  81
SPENCER        CLOUDY    74  63  68 SE8       29.89F
STORM LAKE *   CLEAR     73  66  78 S6        29.90S
$$

IAZ055>058-069>071-079>083-090>094-190200-
   SOUTHWEST IOWA

CITY           SKY/WX    TMP DP  RH WIND       PRES   REMARKS
ATLANTIC *     CLEAR     75  70  83 CALM      29.89S
AUDUBON *      CLEAR     73  68  83 CALM      29.91R
CLARINDA *     CLEAR     77  68  73 W3        29.92R
COUNCIL BLFS * CLEAR     79  68  69 CALM      29.90R HX  81
CRESTON *      CLEAR     77  64  65 W5        29.92R
HARLAN  *      CLEAR     73  68  83 NW5       29.93S
LAMONI         CLEAR     77  65  66 SW5       29.90R
RED OAK *      CLEAR     75  68  78 SW3       29.89F
SHENANDOAH *   CLEAR     77  72  83 CALM      29.91R
$$

IAZ047>049-059>061-072>074-084-190200-
   CENTRAL IOWA

CITY           SKY/WX    TMP DP  RH WIND       PRES   REMARKS
AMES           CLEAR     75  66  73 NE5       29.88F
ANKENY *       CLEAR     75  66  73 NE3       29.89R
BOONE *        CLEAR     73  64  73 NE6       29.89S
CHARITON *     CLEAR     81  64  57 CALM      29.88R HX  82
DES MOINES     PTCLDY    81  62  52 NE7       29.87R HX  82
GRINNELL*      CLEAR     72  66  80 NE8       29.90S
KNOXVILLE *    CLEAR     79  66  65 NE5       29.87R HX  81
MARSHALLTOWN   CLEAR     71  65  81 NE9       29.89S
NEWTON *       CLEAR     75  68  78 NE6       29.89R
PELLA *        CLEAR     77  66  69 CALM      29.89R
PERRY *          N/A     76  64  66 N3        29.88F
$$

IAZ004>006-015-016-023>025-035-036-190200-
   NORTH CENTRAL IOWA

CITY           SKY/WX    TMP DP  RH WIND       PRES   REMARKS
ALGONA *       CLEAR     70  63  78 E5        29.91F
CLARION *      CLEAR     68  68 100 NE6       29.91S
ESTHERVILLE    MOCLDY    68  65  90 SE7       29.89F
FORT DODGE *   CLEAR     70  63  78 E3        29.90F
MASON CITY     CLEAR     66  60  81 S3        29.93S
FOREST CITY *    N/A     64  61  88 CALM      29.92S
WEBSTER CITY * CLEAR     70  64  83 NE3       29.88S
IOWA FALLS *     N/A     73  65  75 CALM      29.92S
$$

IAZ007>011-017>019-026>030-037>042-050>054-066-190200-
   NORTHEAST IOWA

CITY           SKY/WX    TMP DP  RH WIND       PRES   REMARKS
CEDAR RAPIDS   CLEAR     71  62  73 N5        29.88S
CHARLES CITY * CLEAR     66  64  94 CALM      29.92F
CLINTON *      PTCLDY    70  64  81 N6        29.89S
DECORAH *      CLEAR     64  63  94 CALM      29.91S
DUBUQUE        CLEAR     66  60  81 N5        29.91S
MONTICELLO *   CLEAR     68  63  83 CALM      29.89S
OELWEIN *      CLEAR     68  63  83 NE5       29.91F
WATERLOO       CLEAR     68  61  78 E3        29.89S
$$

IAZ064-065-067-068-078-190200-
   EAST CENTRAL IOWA

CITY           SKY/WX    TMP DP  RH WIND       PRES   REMARKS
DAVENPORT      PTCLDY    71  63  75 N6        29.89F
IOWA CITY      CLOUDY    77  63  61 N9        29.89S
MT. PLEASANT * CLOUDY    75  67  76 E5        29.87R
MUSCATINE *    CLOUDY    75  66  73 NE7       29.87R
QUAD CITIES    PTCLDY    78  63  59 N7        29.86F HX  80
$$

IAZ062-063-075>077-085>089-095>099-190200-
   SOUTHEAST IOWA

CITY           SKY/WX    TMP DP  RH WIND       PRES   REMARKS
BURLINGTON     CLOUDY    69  68  96 CALM      29.87R THUNDER
FAIRFIELD *    CLOUDY    75  66  73 NE6       29.87R
FORT MADISON * CLOUDY    66  66 100 S7        29.88S
KEOKUK *       CLOUDY    70  66  88 CALM      29.86R
OSKALOOSA *      N/A     74  67  78 NE3       29.88R
CENTERVILLE *    N/A     73  68  83 CALM      29.90S
OTTUMWA        PTCLDY    78  67  68 NE7       29.87R HX  80
WASHINGTON *   CLOUDY    75  68  78 NE6       29.88R
$$

ABBREVIATIONS USED IN REMARKS
   TC - TEMPERATURES IN CELSIUS
  WCI - WIND CHILL INDEX
   HX - HEAT INDEX
  VSB - VISIBILITY
$$





USA.gov is the U.S. government's official web portal to all federal, state and local government web resources and services.